[[{"header":{"parameterUnit":"m.s-1","parameterCategory":1,"la1":30.2991,"la2":30.254,"lo1":-89.0895,"lo2":-89.0444,"dy":0.0017,"dx":0.0017,"nx":28,"ny":28,"refTime":"2025-11-20T09:00:00:Z","depth":0,"parameterNumber":2,"parameterNumberName":"U-component_of_WINDS"},"data":[0,0,0,0,0,0,0,0,0,0,0,0,0,0,0,0,0,0,0,0,0,0,0,0,0,0,0,0,0,0,0,0,0,0,0,0,0,0,0,0,0,0,0,0,0,0,0,0,0,0,0,0,0,0,0,0,0,0,-1.5375,-1.5374,0,-1.5319,-1.5319,-1.5318,-1.5291,-1.5291,-1.5291,-1.5291,-1.5233,-1.5231,-1.523,0,0,0,0,0,0,0,0,0,0,0,0,0,-1.5454,-1.5453,-1.5375,-1.5374,-1.5373,-1.5319,-1.5319,-1.5318,-1.5291,-1.5291,-1.5291,-1.5291,-1.5233,-1.5231,-1.523,0,0,0,0,0,0,0,0,0,0,0,0,0,-1.5411,-1.5452,-1.5375,-1.5353,-1.5351,-1.532,-1.5319,-1.5318,-1.5291,-1.5291,-1.5291,-1.5291,-1.5234,-1.5232,-1.5229,-1.5215,0,0,-1.5222,-1.5221,0,0,0,0,0,0,0,0,-1.5414,-1.5408,-1.5357,-1.5355,-1.5352,-1.5312,-1.5325,-1.5283,-1.5291,-1.5314,-1.5291,-1.5291,-1.5259,-1.5255,-1.5244,-1.5212,-1.5209,-1.5222,-1.5221,-1.522,-1.5219,0,0,0,0,0,0,0,-1.5417,-1.541,-1.5353,-1.5357,-1.5353,-1.5346,-1.5339,-1.5317,-1.5287,-1.5312,-1.531,-1.5303,-1.5258,-1.5247,-1.5243,-1.5209,-1.5222,-1.522,-1.5219,-1.5218,-1.5159,-1.5159,0,0,0,0,0,0,-1.5423,-1.5413,-1.5355,-1.5351,-1.5383,-1.5344,-1.5337,-1.5325,-1.5287,-1.5281,-1.5304,-1.5302,-1.525,-1.5245,-1.524,-1.5219,-1.522,-1.5217,-1.5216,-1.5159,-1.5159,-1.5159,0,0,0,0,0,0,-1.5425,-1.5418,-1.5357,-1.5381,-1.5373,-1.5343,-1.5329,-1.5324,-1.5313,-1.5281,-1.5275,-1.5298,-1.525,-1.5244,-1.5221,-1.5217,-1.5216,-1.5214,-1.5159,-1.5159,-1.5159,-1.5178,0,0,0,0,0,0,-1.5428,-1.5419,-1.5414,-1.5382,-1.5372,-1.5339,-1.5329,-1.5323,-1.5309,-1.5307,-1.5274,-1.5269,-1.525,-1.5224,-1.5218,-1.5214,-1.5212,-1.5159,-1.5159,-1.5159,-1.5177,-1.5178,-1.5179,0,0,0,0,0,-1.5431,-1.5422,-1.5414,-1.5407,-1.5365,-1.5339,-1.5333,-1.5312,-1.5309,-1.5303,-1.5282,-1.527,-1.5218,-1.5222,-1.5215,-1.521,-1.516,-1.5159,-1.5159,-1.5177,-1.5178,-1.5179,0,0,0,0,0,0,-1.5455,-1.5417,-1.5408,-1.5389,-1.5367,-1.5334,-1.5326,-1.5314,-1.5293,-1.5292,-1.5266,-1.5258,-1.5237,-1.5221,-1.5226,-1.5192,-1.5188,-1.5186,-1.5204,-1.5204,-1.5205,-1.5209,-1.521,0,0,0,0,0,-1.5458,-1.5441,-1.5409,-1.5395,-1.5384,-1.5357,-1.5345,-1.533,-1.5307,-1.5297,-1.5275,-1.5252,-1.523,-1.5216,-1.5195,-1.5175,-1.5166,-1.5167,-1.5168,-1.5169,-1.5167,-1.5153,-1.5153,-1.5157,-1.5157,-1.5157,0,0,-1.5464,-1.5442,-1.5432,-1.5399,-1.538,-1.5362,-1.535,-1.5331,-1.5316,-1.5294,-1.5271,-1.5254,-1.5226,-1.5204,-1.5193,-1.519,-1.5164,-1.5168,-1.5169,-1.5167,-1.5153,-1.5152,-1.5152,-1.5157,-1.5157,-1.5157,0,0,-1.5466,-1.5448,-1.5433,-1.5415,-1.5387,-1.5369,-1.5365,-1.5333,-1.5321,-1.5297,-1.5279,-1.5261,-1.5225,-1.5205,-1.5191,-1.5183,-1.517,-1.5177,-1.518,-1.5167,-1.5167,-1.5166,-1.5162,-1.5161,-1.5175,-1.5175,-1.5175,0,-1.5477,-1.545,-1.5427,-1.5409,-1.5394,-1.5373,-1.5357,-1.534,-1.5306,-1.5296,-1.5293,-1.5245,-1.5225,-1.5197,-1.5195,-1.5184,-1.5178,-1.518,-1.5169,-1.5168,-1.5167,-1.5162,-1.5161,-1.5176,-1.5176,-1.5176,-1.5176,0,-1.5464,-1.5444,-1.5436,-1.5404,-1.5388,-1.5371,-1.5345,-1.5331,-1.5317,-1.5299,-1.5274,-1.5249,-1.5221,-1.5213,-1.52,-1.5182,-1.5181,-1.5174,-1.5168,-1.5168,-1.5163,-1.5161,-1.5178,-1.5177,-1.5177,-1.5177,0,0,-1.548,-1.5435,-1.5432,-1.5416,-1.5383,-1.5367,-1.5348,-1.5321,-1.5309,-1.5286,-1.5268,-1.5237,-1.5229,-1.5213,-1.5197,-1.5185,-1.5178,-1.5179,-1.5177,-1.5178,-1.5155,-1.516,-1.5158,-1.5169,-1.5169,-1.5169,-1.5157,0,-1.5476,-1.5442,-1.5421,-1.5395,-1.5376,-1.5354,-1.5338,-1.5315,-1.5297,-1.5277,-1.5256,-1.5234,-1.5227,-1.5216,-1.5204,-1.5182,-1.5173,-1.5182,-1.5151,-1.5151,-1.5158,-1.5156,-1.5162,-1.5152,-1.5155,-1.5154,-1.5154,0,-1.5468,-1.5445,-1.5417,-1.5384,-1.5375,-1.536,-1.5332,-1.5314,-1.5287,-1.5274,-1.5255,-1.5238,-1.5216,-1.5213,-1.518,-1.5187,-1.5173,-1.516,-1.5159,-1.5155,-1.5152,-1.515,-1.5148,-1.5146,-1.5151,-1.5152,-1.5152,0,-1.548,-1.5443,-1.542,-1.5408,-1.5369,-1.5359,-1.5342,-1.5315,-1.5299,-1.5275,-1.5264,-1.5237,-1.5222,-1.5201,-1.5177,-1.5177,-1.5146,-1.5142,-1.5134,-1.5135,-1.5128,-1.5129,-1.5122,-1.5121,-1.5121,-1.5121,-1.5121,0,-1.5478,-1.5461,-1.5425,-1.5412,-1.5392,-1.5367,-1.5347,-1.5329,-1.5304,-1.5285,-1.5265,-1.5248,-1.5218,-1.5196,-1.5178,-1.5153,-1.5146,-1.5134,-1.5129,-1.5136,-1.5137,-1.5126,-1.5125,-1.5121,-1.5121,-1.5121,-1.5121,0,-1.5489,-1.5464,-1.5438,-1.5403,-1.5394,-1.5381,-1.535,-1.5335,-1.5316,-1.5292,-1.5285,-1.5254,-1.5227,-1.5201,-1.5166,-1.5153,-1.5128,-1.5122,-1.5137,-1.5134,-1.5127,-1.5128,-1.5113,-1.5109,-1.5111,-1.5111,-1.5111,0,-1.5488,-1.5475,-1.5438,-1.5424,-1.5408,-1.5386,-1.5369,-1.5343,-1.5327,-1.5294,-1.5282,-1.5254,-1.523,-1.5188,-1.5162,-1.5134,-1.5126,-1.5123,-1.5122,-1.5128,-1.5124,-1.5125,-1.5123,-1.5123,-1.5124,-1.5124,-1.5124,0,-1.5489,-1.5477,-1.5455,-1.5427,-1.5408,-1.5386,-1.5362,-1.5352,-1.5321,-1.5303,-1.5276,-1.5257,-1.522,-1.5192,-1.516,-1.5142,-1.5127,-1.5124,-1.5121,-1.5126,-1.5135,-1.5129,-1.5137,-1.5125,-1.5125,-1.5124,-1.5124,-1.5124,-1.5493,-1.548,-1.5451,-1.5426,-1.5405,-1.5383,-1.5367,-1.5345,-1.5322,-1.529,-1.5276,-1.5248,-1.5218,-1.5175,-1.5156,-1.5133,-1.5129,-1.5125,-1.5123,-1.5122,-1.5123,-1.514,-1.5127,-1.5127,-1.5127,-1.5127,-1.5127,0,-1.5492,-1.5472,-1.545,-1.5417,-1.5397,-1.5385,-1.5358,-1.5341,-1.5317,-1.5291,-1.5267,-1.5235,-1.5207,-1.5178,-1.5148,-1.5134,-1.5127,-1.5127,-1.5127,-1.5123,-1.5128,-1.5134,-1.5134,-1.5134,-1.5134,-1.5134,-1.5134,-1.5134,-1.5489,-1.5465,-1.5449,-1.5414,-1.5394,-1.5366,-1.5351,-1.533,-1.5309,-1.5274,-1.525,-1.5231,-1.5204,-1.5171,-1.5144,-1.5136,-1.5125,-1.5128,-1.5117,-1.5123,-1.5123,-1.5122,-1.5127,-1.5126,-1.5126,-1.5114,-1.5113,-1.5113]},{"header":{"parameterUnit":"m.s-1","parameterCategory":1,"la1":30.2991,"la2":30.254,"lo1":-89.0895,"lo2":-89.0444,"dy":0.0017,"dx":0.0017,"nx":28,"ny":28,"refTime":"2025-11-20T09:00:00:Z","depth":0,"parameterNumber":3,"parameterNumberName":"V-component_of_WINDS"},"data":[0,0,0,0,0,0,0,0,0,0,0,0,0,0,0,0,0,0,0,0,0,0,0,0,0,0,0,0,0,0,0,0,0,0,0,0,0,0,0,0,0,0,0,0,0,0,0,0,0,0,0,0,0,0,0,0,0,0,3.564,3.5641,0,3.5728,3.5729,3.573,3.574,3.574,3.5739,3.5738,3.5826,3.5829,3.5833,0,0,0,0,0,0,0,0,0,0,0,0,0,3.548,3.5483,3.564,3.5641,3.5642,3.5728,3.5729,3.573,3.5741,3.5739,3.5738,3.5737,3.5825,3.5829,3.5833,0,0,0,0,0,0,0,0,0,0,0,0,0,3.5557,3.5484,3.564,3.5658,3.566,3.5727,3.5729,3.573,3.5741,3.5739,3.5738,3.5737,3.5824,3.5829,3.5833,3.5888,0,0,3.5848,3.585,0,0,0,0,0,0,0,0,3.5553,3.5563,3.5654,3.5656,3.5659,3.5722,3.5705,3.5783,3.5741,3.571,3.5738,3.5736,3.5793,3.58,3.5819,3.5893,3.5896,3.5848,3.5851,3.5853,3.5855,0,0,0,0,0,0,0,3.5547,3.5559,3.5675,3.5655,3.5659,3.5661,3.5671,3.572,3.5757,3.5713,3.5714,3.5724,3.5794,3.5814,3.5821,3.5898,3.5848,3.5852,3.5855,3.5857,3.6024,3.6025,0,0,0,0,0,0,3.5539,3.5555,3.5672,3.5677,3.5602,3.5665,3.5676,3.5703,3.5757,3.5764,3.5725,3.5724,3.5807,3.5816,3.5824,3.5895,3.5853,3.5858,3.586,3.6022,3.6024,3.6026,0,0,0,0,0,0,3.5535,3.5549,3.5668,3.5616,3.5632,3.5669,3.57,3.5705,3.5726,3.5766,3.5773,3.5739,3.5806,3.5818,3.5873,3.5898,3.586,3.5864,3.602,3.6023,3.6025,3.6034,0,0,0,0,0,0,3.5531,3.5548,3.5569,3.5617,3.5634,3.5716,3.5701,3.5708,3.5735,3.5734,3.5782,3.5788,3.5806,3.5866,3.5878,3.5904,3.5868,3.6018,3.6021,3.6024,3.6032,3.6037,3.6041,0,0,0,0,0,3.5525,3.5567,3.557,3.5584,3.5662,3.5717,3.5727,3.5748,3.5736,3.5758,3.5785,3.5787,3.5893,3.5872,3.5885,3.5913,3.6017,3.602,3.6024,3.603,3.6036,3.6041,0,0,0,0,0,0,3.552,3.5574,3.5578,3.5636,3.5672,3.5719,3.5747,3.5753,3.5792,3.579,3.5813,3.5824,3.5879,3.5901,3.5876,3.597,3.5954,3.596,3.5954,3.596,3.5964,3.5958,3.5872,0,0,0,0,0,3.5526,3.5567,3.5611,3.5659,3.5677,3.5709,3.5733,3.5746,3.5784,3.5799,3.5829,3.5866,3.5908,3.5934,3.5975,3.6035,3.6046,3.606,3.6065,3.6068,3.6074,3.611,3.6117,3.6037,3.6037,3.6037,0,0,3.5539,3.5573,3.5597,3.5659,3.5688,3.573,3.5721,3.5765,3.5797,3.5806,3.5861,3.5884,3.5926,3.5985,3.6012,3.6005,3.6099,3.6073,3.6075,3.6079,3.6114,3.6122,3.6129,3.604,3.6039,3.6039,0,0,3.5584,3.5613,3.5657,3.5687,3.5732,3.5754,3.5764,3.581,3.5827,3.5882,3.589,3.5928,3.5999,3.603,3.6054,3.6113,3.6117,3.6125,3.6149,3.6184,3.619,3.6196,3.6219,3.6227,3.6131,3.6131,3.6131,0,3.5593,3.5658,3.5679,3.5724,3.5752,3.5762,3.5808,3.5836,3.5891,3.591,3.5902,3.5993,3.6022,3.6089,3.6104,3.6123,3.6137,3.6121,3.6187,3.6193,3.6199,3.6221,3.623,3.6132,3.6131,3.6131,3.6131,0,3.5669,3.5713,3.5743,3.5799,3.5829,3.5874,3.5903,3.5932,3.5942,3.5964,3.6022,3.6057,3.6107,3.6123,3.6133,3.6193,3.6187,3.6182,3.6167,3.6207,3.6229,3.6237,3.6133,3.6132,3.6132,3.6132,0,0,3.5713,3.5781,3.5792,3.5818,3.5869,3.5904,3.595,3.5999,3.6024,3.6062,3.6102,3.6163,3.616,3.6188,3.6202,3.6232,3.6279,3.6224,3.6225,3.6235,3.635,3.6354,3.6364,3.6282,3.6283,3.6285,3.6347,0,3.5765,3.5848,3.587,3.5941,3.5983,3.5995,3.6035,3.6071,3.6093,3.6132,3.6157,3.6201,3.6192,3.6209,3.624,3.6267,3.6303,3.6262,3.632,3.6322,3.6312,3.6375,3.6379,3.6437,3.6355,3.6357,3.6358,0,3.5837,3.5879,3.5955,3.6003,3.6021,3.6057,3.6105,3.6142,3.6184,3.6198,3.6231,3.6242,3.6291,3.6272,3.6341,3.6313,3.6338,3.6355,3.6358,3.6365,3.6344,3.6386,3.6455,3.6464,3.6371,3.637,3.6369,0,3.5865,3.594,3.5996,3.6017,3.6074,3.6099,3.6124,3.6164,3.6193,3.6235,3.6254,3.63,3.6326,3.6362,3.6386,3.6369,3.6454,3.6436,3.6468,3.6468,3.6487,3.6486,3.6563,3.6499,3.6499,3.6499,3.6499,0,3.5923,3.5969,3.6009,3.6044,3.6096,3.6121,3.6172,3.6197,3.6233,3.6273,3.6285,3.6322,3.635,3.6391,3.641,3.6466,3.6476,3.649,3.6495,3.6491,3.6489,3.6508,3.6506,3.6501,3.6501,3.65,3.65,0,3.5963,3.5992,3.6054,3.6103,3.6116,3.6153,3.6196,3.623,3.6253,3.6303,3.6317,3.6353,3.6402,3.6429,3.649,3.6503,3.6566,3.6568,3.6553,3.6555,3.6587,3.6584,3.6681,3.6696,3.662,3.6621,3.6621,0,3.5999,3.6036,3.6089,3.6118,3.6143,3.6188,3.6218,3.6243,3.6274,3.6326,3.6354,3.6404,3.6446,3.6524,3.6556,3.6604,3.6608,3.6639,3.6615,3.661,3.6612,3.661,3.6615,3.6643,3.6644,3.6644,3.6645,0,3.6061,3.6074,3.6117,3.6166,3.6202,3.6242,3.6281,3.6303,3.6335,3.6369,3.642,3.6453,3.6517,3.6567,3.6618,3.6643,3.665,3.6652,3.6662,3.6659,3.665,3.6658,3.6566,3.665,3.6649,3.6649,3.6649,3.6648,3.6102,3.6136,3.618,3.6228,3.6261,3.6297,3.6333,3.6361,3.6405,3.6459,3.6471,3.6526,3.6568,3.6637,3.6664,3.6708,3.6702,3.6716,3.6721,3.6724,3.6727,3.6641,3.6717,3.6717,3.6716,3.6716,3.6716,0,3.6166,3.6195,3.624,3.6295,3.6334,3.6337,3.6381,3.6413,3.6462,3.6501,3.6542,3.6602,3.6652,3.6688,3.6739,3.6767,3.6771,3.6779,3.6779,3.6785,3.6728,3.6715,3.6775,3.6775,3.6775,3.6775,3.6775,3.6775,3.6204,3.6263,3.6281,3.6356,3.6385,3.644,3.6465,3.6499,3.6531,3.6598,3.664,3.6663,3.6702,3.6756,3.6802,3.6811,3.683,3.6838,3.6848,3.6795,3.6789,3.6783,3.6771,3.6842,3.6842,3.6902,3.6903,3.6903]}]]